This is the latest recevied weather packets stored in our database for station/object SP1BMW-13. If no packets are shown the sender has not sent any weather packets the latest 10 day(s).
| Time | Temp. | Humidity | Pressure | Rain* | Wind** | Luminosity | Snow |
|---|---|---|---|---|---|---|---|
| 1787378460 | 15° C | 96% | 1007 hPa | 0 mm | 0 m/s | 50 W/m² | - |
| 1787378400 | 15° C | 96% | 1006.9 hPa | 0 mm | 0.89 m/s, 245° | 46 W/m² | - |
| 1787378340 | 15° C | 96% | 1007 hPa | 0 mm | 0.45 m/s, 226° | 44 W/m² | - |
| 1787378280 | 15° C | 96% | 1007 hPa | 0 mm | 0.45 m/s, 257° | 44 W/m² | - |
| 1787378221 | 15° C | 97% | 1007.1 hPa | 0 mm | 0.45 m/s, 276° | 45 W/m² | - |
| 1787378161 | 15° C | 97% | 1007.1 hPa | 0 mm | 0.45 m/s, 265° | 46 W/m² | - |
| 1787378101 | 15° C | 97% | 1007 hPa | 0 mm | 0.45 m/s, 248° | 46 W/m² | - |
| 1787378041 | 15° C | 97% | 1007 hPa | 0 mm | 0.89 m/s, 250° | 44 W/m² | - |
| 1787377981 | 15° C | 97% | 1007.1 hPa | 0 mm | 0.45 m/s, 236° | 40 W/m² | - |
| 1787377921 | 15° C | 97% | 1007 hPa | 0 mm | 0.89 m/s, 263° | 35 W/m² | - |
| 1787377861 | 15° C | 97% | 1006.9 hPa | 0 mm | 0.89 m/s, 266° | 34 W/m² | - |
| 1787377801 | 15° C | 97% | 1007.2 hPa | 0 mm | 0 m/s | 33 W/m² | - |
| 1787377741 | 15° C | 97% | 1007 hPa | 0 mm | 0 m/s | 33 W/m² | - |
| 1787377681 | 15° C | 97% | 1007 hPa | 0 mm | 0.89 m/s, 269° | 32 W/m² | - |
| 1787377621 | 15° C | 97% | 1007.1 hPa | 0 mm | 0.89 m/s, 274° | 30 W/m² | - |
| 1787377561 | 15° C | 97% | 1006.9 hPa | 0 mm | 0 m/s | 28 W/m² | - |
| 1787377501 | 15° C | 97% | 1006.9 hPa | 0 mm | 0.45 m/s, 237° | 28 W/m² | - |
| 1787377441 | 15° C | 97% | 1007 hPa | 0 mm | 0.89 m/s, 219° | 26 W/m² | - |
| 1787377381 | 15° C | 97% | 1007 hPa | 0 mm | 0.45 m/s, 235° | 26 W/m² | - |
| 1787377321 | 15° C | 97% | 1006.9 hPa | 0 mm | 0.45 m/s, 237° | 26 W/m² | - |
| 1787377261 | 15° C | 97% | 1006.9 hPa | 0 mm | 0.45 m/s, 172° | 26 W/m² | - |
| 1787377201 | 15° C | 97% | 1007 hPa | 0 mm | 0.45 m/s, 261° | 25 W/m² | - |
| 1787377141 | 15° C | 97% | 1007 hPa | 0 mm | 0 m/s | 22 W/m² | - |
| 1787377081 | 15° C | 97% | 1006.8 hPa | 0 mm | 0.45 m/s, 245° | 20 W/m² | - |
| 1787377021 | 15° C | 97% | 1007 hPa | 0 mm | 0.45 m/s, 288° | 19 W/m² | - |
* Rain latest hour (hover to see other rain measurements)
** Current wind speed in m/s (hover to see current wind gust speed)